[[{"header":{"parameterUnit":"m.s-1","parameterCategory":1,"la1":30.2991,"la2":30.254,"lo1":-89.0895,"lo2":-89.0444,"dy":0.0017,"dx":0.0017,"nx":28,"ny":28,"refTime":"2026-02-26T03:00:00:Z","depth":0,"parameterNumber":2,"parameterNumberName":"U-component_of_WINDS"},"data":[0,0,0,0,0,0,0,0,0,0,0,0,0,0,0,0,0,0,0,0,0,0,0,0,0,0,0,0,0,0,0,0,0,0,0,0,0,0,0,0,0,0,0,0,0,0,0,0,0,0,0,0,0,0,0,0,0,0,-0.0465,-0.0466,0,-0.052,-0.0521,-0.0521,-0.0576,-0.0577,-0.0577,-0.0578,-0.0631,-0.0631,-0.0632,0,0,0,0,0,0,0,0,0,0,0,0,0,-0.0403,-0.0404,-0.0465,-0.0466,-0.0466,-0.052,-0.0521,-0.0521,-0.0576,-0.0577,-0.0578,-0.0578,-0.063,-0.0631,-0.0632,0,0,0,0,0,0,0,0,0,0,0,0,0,-0.0441,-0.0404,-0.0465,-0.05,-0.0504,-0.052,-0.0521,-0.0522,-0.0576,-0.0577,-0.0578,-0.0579,-0.063,-0.0631,-0.0632,-0.0617,0,0,-0.0636,-0.0636,0,0,0,0,0,0,0,0,-0.0439,-0.0443,-0.0494,-0.0498,-0.0502,-0.0542,-0.0518,-0.0553,-0.0575,-0.0548,-0.0578,-0.0579,-0.06,-0.0604,-0.0612,-0.0619,-0.0622,-0.0636,-0.0636,-0.0637,-0.0637,0,0,0,0,0,0,0,-0.0436,-0.0441,-0.0487,-0.0495,-0.0499,-0.0512,-0.0518,-0.0525,-0.0567,-0.0551,-0.0555,-0.0561,-0.0602,-0.061,-0.0613,-0.0622,-0.0636,-0.0637,-0.0637,-0.0638,-0.0619,-0.0618,0,0,0,0,0,0,-0.0429,-0.0439,-0.0485,-0.0488,-0.0473,-0.0512,-0.0519,-0.0528,-0.0567,-0.0574,-0.056,-0.0563,-0.0608,-0.0612,-0.0615,-0.0599,-0.0637,-0.0638,-0.0638,-0.062,-0.0619,-0.0618,0,0,0,0,0,0,-0.0427,-0.0432,-0.0483,-0.0465,-0.0472,-0.0512,-0.0521,-0.0529,-0.0537,-0.0574,-0.0582,-0.056,-0.0609,-0.0614,-0.0616,-0.0601,-0.0638,-0.0639,-0.0621,-0.062,-0.0618,-0.0566,0,0,0,0,0,0,-0.0425,-0.0432,-0.0427,-0.0464,-0.0473,-0.0483,-0.052,-0.0529,-0.0539,-0.0544,-0.0577,-0.0583,-0.061,-0.0614,-0.0617,-0.0603,-0.064,-0.0623,-0.0621,-0.0619,-0.0569,-0.0563,-0.0557,0,0,0,0,0,-0.0423,-0.041,-0.0426,-0.0432,-0.0468,-0.0483,-0.0487,-0.052,-0.0537,-0.0532,-0.0556,-0.0582,-0.0603,-0.0614,-0.0618,-0.0604,-0.0624,-0.0621,-0.0619,-0.0572,-0.0564,-0.0557,0,0,0,0,0,0,-0.0368,-0.0415,-0.0434,-0.0433,-0.0453,-0.0492,-0.0487,-0.0511,-0.0525,-0.0529,-0.0568,-0.0575,-0.0572,-0.0589,-0.06,-0.0591,-0.0617,-0.0615,-0.058,-0.0573,-0.0567,-0.0562,-0.0641,0,0,0,0,0,-0.0356,-0.0365,-0.0405,-0.04,-0.041,-0.0446,-0.0454,-0.0477,-0.0499,-0.0508,-0.0532,-0.0552,-0.0563,-0.0569,-0.0581,-0.0572,-0.0579,-0.0565,-0.0559,-0.0554,-0.0551,-0.0546,-0.054,-0.0609,-0.0609,-0.0609,0,0,-0.0331,-0.0358,-0.0361,-0.039,-0.0409,-0.0416,-0.0453,-0.0459,-0.0464,-0.0508,-0.0512,-0.053,-0.0555,-0.0551,-0.0551,-0.0565,-0.0534,-0.055,-0.0546,-0.0546,-0.0543,-0.0536,-0.053,-0.0607,-0.0608,-0.0608,0,0,-0.0289,-0.0311,-0.0308,-0.0326,-0.0354,-0.0379,-0.0378,-0.0413,-0.0427,-0.0432,-0.0465,-0.0471,-0.0489,-0.0505,-0.0515,-0.0478,-0.0502,-0.0481,-0.0449,-0.0444,-0.0439,-0.0434,-0.0419,-0.0414,-0.0479,-0.0479,-0.0479,0,-0.0254,-0.0267,-0.0304,-0.0308,-0.0319,-0.036,-0.0357,-0.0372,-0.0402,-0.0408,-0.0424,-0.0448,-0.0467,-0.0467,-0.0458,-0.0466,-0.0465,-0.0477,-0.0437,-0.0433,-0.0429,-0.0415,-0.041,-0.0476,-0.0476,-0.0477,-0.0477,0,-0.0221,-0.023,-0.0224,-0.0253,-0.0264,-0.0264,-0.03,-0.0306,-0.0328,-0.035,-0.0353,-0.0379,-0.0396,-0.0398,-0.042,-0.0401,-0.0408,-0.043,-0.0457,-0.0419,-0.0406,-0.0402,-0.0472,-0.0473,-0.0474,-0.0474,0,0,-0.0145,-0.0195,-0.0192,-0.0205,-0.0239,-0.0246,-0.0247,-0.0266,-0.0269,-0.0289,-0.029,-0.0304,-0.0325,-0.0336,-0.036,-0.0356,-0.0323,-0.0378,-0.0379,-0.0365,-0.0302,-0.0284,-0.0278,-0.034,-0.0339,-0.0338,-0.03,0,-0.0107,-0.0114,-0.0147,-0.0143,-0.0151,-0.019,-0.0192,-0.0212,-0.0233,-0.0241,-0.0264,-0.0273,-0.03,-0.0307,-0.0304,-0.0328,-0.0311,-0.0331,-0.034,-0.0339,-0.0331,-0.0272,-0.0253,-0.0215,-0.0295,-0.0294,-0.0294,0,-0.0064,-0.0081,-0.0078,-0.0112,-0.0116,-0.0117,-0.0135,-0.0144,-0.0167,-0.0182,-0.0195,-0.0222,-0.0225,-0.0251,-0.0254,-0.0267,-0.0273,-0.0285,-0.0284,-0.0285,-0.0313,-0.0269,-0.0204,-0.0198,-0.0287,-0.0288,-0.0288,0,-0.0007,-0.0029,-0.003,-0.0041,-0.008,-0.0079,-0.0095,-0.012,-0.0128,-0.0144,-0.015,-0.0166,-0.0174,-0.0185,-0.0215,-0.0232,-0.0215,-0.0244,-0.0226,-0.0225,-0.0219,-0.0219,-0.0152,-0.0225,-0.0225,-0.0226,-0.0226,0,0.004,0.0044,-0.0005,-0.0005,-0.0002,-0.0039,-0.0035,-0.0054,-0.0076,-0.008,-0.0115,-0.0118,-0.0158,-0.0165,-0.0189,-0.0187,-0.0191,-0.0202,-0.0208,-0.0198,-0.0196,-0.0201,-0.0203,-0.0224,-0.0224,-0.0225,-0.0225,0,0.0105,0.0072,0.0069,0.0032,0.0023,0.0027,-0.0004,-0.0005,-0.0028,-0.0033,-0.0036,-0.0072,-0.0082,-0.0113,-0.0131,-0.0147,-0.0137,-0.015,-0.0129,-0.0133,-0.0113,-0.0114,-0.0046,-0.0038,-0.0117,-0.0116,-0.0116,0,0.0138,0.014,0.0103,0.0097,0.0083,0.0074,0.0065,0.0028,0.0021,-0.0006,-0.0003,-0.0016,-0.0028,-0.0042,-0.0069,-0.0082,-0.0095,-0.007,-0.0097,-0.0086,-0.0092,-0.0091,-0.009,-0.0063,-0.0062,-0.0062,-0.0061,0,0.02,0.0184,0.0172,0.0155,0.0145,0.0129,0.0112,0.011,0.0069,0.0062,0.0051,0.0042,0.0023,0.0012,-0.0006,-0.0022,-0.0047,-0.0053,-0.0049,-0.0037,-0.0025,-0.003,-0.0112,-0.0053,-0.0054,-0.0055,-0.0055,-0.0055,0.0251,0.0252,0.0226,0.0214,0.0197,0.0182,0.0179,0.0155,0.0145,0.0127,0.0106,0.0098,0.0075,0.0048,0.0035,0.0029,0.0015,0.002,0.0021,0.0024,0.0029,-0.0026,0.0025,0.0025,0.0025,0.0024,0.0024,0,0.0314,0.0295,0.0284,0.0261,0.0252,0.0227,0.0206,0.0201,0.0194,0.0174,0.0163,0.0151,0.0139,0.0111,0.0097,0.0098,0.0086,0.0096,0.0096,0.0093,0.0042,0.0041,0.0106,0.0106,0.0106,0.0106,0.0106,0.0106,0.0345,0.0345,0.0325,0.0317,0.0298,0.0289,0.028,0.0266,0.0251,0.0239,0.0229,0.021,0.0187,0.0171,0.016,0.0152,0.0149,0.0163,0.0152,0.0105,0.0097,0.009,0.0088,0.0163,0.0163,0.0204,0.0205,0.0205]},{"header":{"parameterUnit":"m.s-1","parameterCategory":1,"la1":30.2991,"la2":30.254,"lo1":-89.0895,"lo2":-89.0444,"dy":0.0017,"dx":0.0017,"nx":28,"ny":28,"refTime":"2026-02-26T03:00:00:Z","depth":0,"parameterNumber":3,"parameterNumberName":"V-component_of_WINDS"},"data":[0,0,0,0,0,0,0,0,0,0,0,0,0,0,0,0,0,0,0,0,0,0,0,0,0,0,0,0,0,0,0,0,0,0,0,0,0,0,0,0,0,0,0,0,0,0,0,0,0,0,0,0,0,0,0,0,0,0,3.842,3.8421,0,3.8501,3.8502,3.8503,3.85,3.8499,3.8498,3.8497,3.8578,3.8581,3.8584,0,0,0,0,0,0,0,0,0,0,0,0,0,3.8261,3.8264,3.842,3.8421,3.8422,3.8501,3.8502,3.8503,3.85,3.8499,3.8498,3.8496,3.8577,3.8581,3.8585,0,0,0,0,0,0,0,0,0,0,0,0,0,3.8335,3.8265,3.842,3.843,3.8432,3.8501,3.8502,3.8504,3.8501,3.8499,3.8497,3.8496,3.8576,3.858,3.8585,3.8649,0,0,3.86,3.8602,0,0,0,0,0,0,0,0,3.8331,3.8341,3.8428,3.843,3.8432,3.8489,3.8476,3.8552,3.8501,3.8475,3.8497,3.8495,3.855,3.8557,3.8575,3.8653,3.8656,3.86,3.8603,3.8605,3.8607,0,0,0,0,0,0,0,3.8326,3.8337,3.8452,3.8429,3.8431,3.843,3.8439,3.849,3.8521,3.8477,3.8477,3.8486,3.855,3.8571,3.8577,3.8657,3.86,3.8605,3.8607,3.8609,3.8791,3.8793,0,0,0,0,0,0,3.8319,3.8333,3.845,3.8455,3.8376,3.8435,3.8444,3.8472,3.852,3.8526,3.8488,3.8486,3.8563,3.8572,3.858,3.8658,3.8605,3.861,3.8613,3.8789,3.8791,3.8793,0,0,0,0,0,0,3.8315,3.8329,3.8446,3.8394,3.8409,3.8439,3.8471,3.8475,3.8495,3.8528,3.8533,3.8503,3.8562,3.8573,3.8632,3.8661,3.8612,3.8616,3.8787,3.879,3.8792,3.8815,0,0,0,0,0,0,3.8311,3.8328,3.8353,3.8395,3.8412,3.8498,3.8472,3.8478,3.8504,3.8502,3.8544,3.8549,3.8562,3.8625,3.8637,3.8667,3.862,3.8784,3.8788,3.8792,3.8812,3.8818,3.8824,0,0,0,0,0,3.8305,3.8355,3.8354,3.8368,3.8443,3.8499,3.8509,3.8523,3.8506,3.8531,3.8552,3.8548,3.8656,3.8631,3.8644,3.8676,3.8783,3.8787,3.8791,3.8809,3.8817,3.8824,0,0,0,0,0,0,3.8316,3.8361,3.836,3.8426,3.8459,3.8499,3.8531,3.853,3.8569,3.8565,3.858,3.859,3.8649,3.8668,3.8639,3.874,3.8717,3.8724,3.8726,3.8734,3.874,3.8734,3.8624,0,0,0,0,0,3.8326,3.8368,3.8405,3.8459,3.8476,3.85,3.8525,3.8533,3.8567,3.8581,3.8607,3.864,3.8681,3.8708,3.8748,3.8814,3.8823,3.8843,3.8849,3.8853,3.886,3.8897,3.8906,3.8808,3.8808,3.8808,0,0,3.8347,3.8377,3.8402,3.8462,3.8488,3.8531,3.8512,3.8558,3.859,3.8588,3.8646,3.8665,3.8703,3.8766,3.8795,3.8784,3.8889,3.8859,3.8863,3.8867,3.8902,3.8911,3.892,3.8811,3.881,3.881,0,0,3.8408,3.8434,3.8483,3.851,3.855,3.8566,3.8578,3.8618,3.8631,3.8689,3.8689,3.8726,3.8797,3.8825,3.8848,3.8919,3.8916,3.8931,3.8963,3.8999,3.9006,3.9013,3.9039,3.9048,3.8937,3.8937,3.8937,0,3.8429,3.8494,3.8507,3.8554,3.858,3.8581,3.863,3.8655,3.8707,3.8725,3.8712,3.8801,3.8826,3.8896,3.8913,3.8931,3.8945,3.8927,3.9004,3.9011,3.9018,3.9043,3.9053,3.8939,3.8938,3.8938,3.8938,0,3.8518,3.8563,3.8597,3.8648,3.8678,3.8725,3.8746,3.8774,3.8779,3.8796,3.8855,3.8886,3.8932,3.8949,3.8954,3.9019,3.9011,3.9001,3.8978,3.9029,3.9053,3.9062,3.8941,3.894,3.894,3.8939,0,0,3.8589,3.8646,3.8658,3.8682,3.8726,3.8761,3.8808,3.8854,3.8879,3.8914,3.8954,3.9014,3.9005,3.9031,3.9039,3.907,3.9125,3.9056,3.9057,3.9069,3.92,3.9208,3.9219,3.9123,3.9125,3.9127,3.9197,0,3.8655,3.874,3.8754,3.8828,3.887,3.8871,3.8912,3.8944,3.8961,3.8999,3.9017,3.906,3.9044,3.906,3.9091,3.9112,3.9152,3.9107,3.9161,3.9163,3.9153,3.9231,3.9241,3.9306,3.9206,3.9208,3.9209,0,3.8744,3.8782,3.8861,3.8901,3.8919,3.8956,3.8999,3.9035,3.9071,3.9081,3.9111,3.9115,3.9163,3.9137,3.9205,3.9174,3.9196,3.921,3.9213,3.9219,3.919,3.9241,3.9327,3.9337,3.9224,3.9222,3.9221,0,3.8789,3.886,3.8917,3.8936,3.8983,3.901,3.903,3.9064,3.9091,3.9128,3.9146,3.9188,3.9211,3.9244,3.9259,3.9238,3.9326,3.93,3.9336,3.9335,3.9355,3.9354,3.9446,3.9368,3.9367,3.9367,3.9367,0,3.8862,3.8911,3.8938,3.8973,3.9027,3.9042,3.9095,3.9115,3.9145,3.9184,3.9186,3.9222,3.9239,3.9278,3.9289,3.9344,3.9354,3.9364,3.9366,3.9364,3.9363,3.938,3.9377,3.937,3.9369,3.9369,3.9368,0,3.8923,3.8942,3.9005,3.9044,3.9055,3.9094,3.9127,3.9161,3.9177,3.9226,3.9238,3.9264,3.931,3.9328,3.9383,3.9391,3.9454,3.9452,3.9442,3.9444,3.9478,3.9475,3.9586,3.9602,3.9511,3.9512,3.9513,0,3.8969,3.9007,3.905,3.9077,3.9098,3.9141,3.9168,3.9183,3.9212,3.9255,3.9284,3.9329,3.9367,3.9439,3.9462,3.9505,3.9505,3.9541,3.9511,3.9508,3.9507,3.9505,3.9509,3.9547,3.9548,3.9548,3.9549,0,3.9049,3.9057,3.9097,3.9141,3.9174,3.9209,3.9243,3.9264,3.9284,3.9316,3.9363,3.9392,3.9449,3.9494,3.9537,3.9558,3.9557,3.9558,3.9568,3.9567,3.9561,3.9566,3.9459,3.9556,3.9555,3.9554,3.9554,3.9554,3.9105,3.9139,3.9175,3.922,3.9247,3.9278,3.9312,3.9333,3.9373,3.9421,3.9427,3.9477,3.9511,3.957,3.9592,3.9631,3.9622,3.9637,3.9641,3.9645,3.9648,3.9553,3.9639,3.9639,3.9639,3.9639,3.9638,0,3.9187,3.921,3.9251,3.9299,3.9334,3.933,3.9367,3.9396,3.9441,3.9473,3.951,3.9564,3.9608,3.9634,3.9678,3.9704,3.9705,3.9715,3.9714,3.9719,3.9653,3.964,3.9714,3.9714,3.9714,3.9714,3.9714,3.9714,3.9234,3.9291,3.9303,3.9374,3.9396,3.9446,3.9468,3.9497,3.9523,3.9583,3.962,3.9637,3.9667,3.9713,3.9753,3.9759,3.9776,3.9787,3.9793,3.9732,3.9724,3.9716,3.9704,3.979,3.9791,3.9856,3.9857,3.9857]}]]